"2019/01/01",  3.8,  9.8, -2.2
"2019/01/02",  5.5, 10.6,  1.4
"2019/01/03",  3.1,  9.7, -2.8
"2019/01/04"," * "," * "," * "
"2019/01/05"," * "," * "," * "
"2019/01/06"," * "," * "," * "
"2019/01/07"," * "," * "," * "
"2019/01/08",  4.2, 10.3, -1.1
"2019/01/09",  3.9,  7.5, -0.6
"2019/01/10",  0.8,  5.0, -4.0
"2019/01/11",  5.2, 11.7, -0.9
"2019/01/12"," * "," * "," * "
"2019/01/13"," * "," * "," * "
"2019/01/14"," * "," * "," * "
"2019/01/15"," * "," * "," * "
"2019/01/16",  5.6,  9.9,  1.1
"2019/01/17",  5.9, 11.3,  0.3
"2019/01/18",  5.5,  8.4,  2.8
"2019/01/19",  5.9, 11.4,  1.7
"2019/01/20",  5.4, 12.2, -1.3
"2019/01/21",  5.1,  9.4,  0.9
"2019/01/22",  4.0, 10.2, -2.5
"2019/01/23",  5.1, 11.1,  0.3
"2019/01/24",  5.0,  8.5,  0.8
"2019/01/25",  3.9,  7.3,  0.6
"2019/01/26",  3.4,  7.1, -0.3
"2019/01/27",  3.1,  8.5, -1.4
"2019/01/28",  4.3, 12.3, -1.5
"2019/01/29",  4.9,  9.2, -0.7
"2019/01/30",  4.0,  8.1, -2.4
"2019/01/31",  3.1,  9.3, -1.4
"2019/02/01",  2.8,  6.9, -0.6
"2019/02/02",  6.0, 13.0, -1.1
"2019/02/03",  6.6, 12.6, -0.8
"2019/02/04", 13.1, 18.0,  5.5
"2019/02/05",  5.7,  7.7,  3.9
"2019/02/06",  6.3,  8.5,  3.8
"2019/02/07",  8.1, 15.9,  0.9
"2019/02/08",  4.8,  8.9,  1.3
"2019/02/09",  0.2,  1.5, -1.0
"2019/02/10",  2.4,  5.8, -1.1
"2019/02/11",  1.6,  3.4, -1.0
"2019/02/12",  4.2,  7.7,  0.2
"2019/02/13",  3.7,  6.1,  1.6
"2019/02/14",  3.4,  6.9,  0.5
"2019/02/15",  2.1,  3.5,  0.1
"2019/02/16",  4.9, 10.9,  0.5
"2019/02/17",  4.8,  8.9,  0.5
"2019/02/18",  5.7, 11.7, -1.4
"2019/02/19",  7.8, 10.1,  5.3
"2019/02/20",  9.0, 14.0,  4.2
"2019/02/21",  8.6, 13.0,  4.7
"2019/02/22"," * "," * "," * "
"2019/02/23"," * "," * "," * "
"2019/02/24"," * "," * "," * "
"2019/02/25"," * "," * "," * "
"2019/02/26",  8.8, 10.0,  7.3
"2019/02/27",  7.2,  9.4,  4.3
"2019/02/28",  7.0,  9.6,  5.4
"2019/03/01",  8.5, 12.4,  6.5
"2019/03/02",  8.1, 12.8,  2.9
"2019/03/03",  6.6,  7.8,  5.2
"2019/03/04",  8.4, 10.8,  5.7
"2019/03/05",  8.1, 11.5,  4.8
"2019/03/06", 10.1, 14.0,  7.1
"2019/03/07",  8.5, 10.3,  6.8
"2019/03/08",  6.5, 10.0,  2.9
"2019/03/09",  8.6, 15.5,  1.2
"2019/03/10", 11.5, 14.3,  7.5
"2019/03/11", 12.2, 16.1, 10.6
"2019/03/12", 10.8, 15.9,  5.1
"2019/03/13", 10.7, 17.0,  5.2
"2019/03/14",  7.4, 12.0,  1.3
"2019/03/15",  8.5, 12.9,  2.8
"2019/03/16",  8.4, 11.6,  5.9
"2019/03/17",  7.8, 11.4,  4.1
"2019/03/18",  8.1, 11.1,  3.8
"2019/03/19", 12.6, 18.4,  7.5
"2019/03/20", 12.5, 16.6,  8.4
"2019/03/21", 15.7, 19.9, 10.5
"2019/03/22", 14.6, 20.3,  9.1
"2019/03/23",  6.2,  9.2,  4.5
"2019/03/24",  7.3, 12.8,  0.2
"2019/03/25",  8.9, 12.8,  4.2
"2019/03/26", 10.7, 13.4,  8.4
"2019/03/27", 13.0, 18.3,  6.7
"2019/03/28", 11.4, 14.4,  7.4
"2019/03/29",  6.8,  7.7,  5.7
"2019/03/30",  7.9,  9.3,  6.6
"2019/03/31",  8.9, 12.2,  6.8
"2019/04/01",  7.4, 12.6,  2.5
"2019/04/02",  6.7, 12.2,  1.9
"2019/04/03",  6.6, 11.7,  0.4
"2019/04/04",  9.3, 16.4,  1.0
"2019/04/05", 13.8, 19.5,  5.4
"2019/04/06", 14.7, 20.5,  9.5
"2019/04/07", 13.9, 17.4, 11.6
"2019/04/08",  9.0, 13.0,  5.3
"2019/04/09",  9.3, 15.4,  2.8
"2019/04/10",  7.0,  9.6,  4.9
"2019/04/11",  8.4, 13.7,  4.7
"2019/04/12"," * "," * "," * "
"2019/04/13"," * "," * "," * "
"2019/04/14"," * "," * "," * "
"2019/04/15"," * "," * "," * "
"2019/04/16"," * "," * "," * "
"2019/04/17", 14.4, 18.0, 10.9
"2019/04/18", 15.4, 19.5, 12.0
"2019/04/19", 16.6, 21.3, 12.6
"2019/04/20", 11.9, 14.6,  9.3
"2019/04/21", 13.8, 17.0, 11.2
"2019/04/22", 16.3, 20.9, 12.9
"2019/04/23", 16.7, 21.1, 13.5
"2019/04/24", 18.8, 21.4, 16.2
"2019/04/25", 19.2, 22.5, 12.7
"2019/04/26", 10.4, 13.4,  8.8
"2019/04/27",  9.2, 11.1,  6.9
"2019/04/28", 10.7, 16.0,  5.0
"2019/04/29", 14.5, 18.9, 10.0
"2019/04/30", 14.9, 17.1, 12.8
"2019/05/01", 16.7, 20.9, 14.5
"2019/05/02", 17.8, 23.8, 14.5
"2019/05/03", 17.0, 20.9, 11.4
"2019/05/04", 17.4, 20.2, 14.9
"2019/05/05", 18.2, 23.1, 12.5
"2019/05/06", 18.8, 23.4, 16.1
"2019/05/07", 13.4, 16.6,  8.7
"2019/05/08", 15.0, 21.3,  6.6
"2019/05/09", 18.4, 21.9, 14.5
"2019/05/10", 18.9, 24.3, 11.4
"2019/05/11", 19.1, 24.4, 14.7
"2019/05/12", 14.0, 16.1, 12.8
"2019/05/13", 15.3, 18.2, 12.0
"2019/05/14", 18.2, 21.5, 16.2
"2019/05/15", 18.0, 21.2, 15.5
"2019/05/16", 18.8, 22.3, 15.5
"2019/05/17", 19.1, 22.2, 16.0
"2019/05/18", 19.6, 23.1, 16.8
"2019/05/19", 19.6, 23.0, 17.3
"2019/05/20", 19.7, 22.7, 16.5
"2019/05/21", 19.0, 20.6, 15.0
"2019/05/22", 17.3, 20.3, 14.7
"2019/05/23", 19.2, 24.0, 14.0
"2019/05/24", 21.7, 29.3, 14.7
"2019/05/25", 22.9, 28.9, 17.0
"2019/05/26", 24.3, 30.7, 16.4
"2019/05/27", 24.8, 31.4, 19.2
"2019/05/28", 23.0, 26.3, 19.9
"2019/05/29", 18.4, 20.3, 16.7
"2019/05/30", 19.6, 25.3, 15.6
"2019/05/31", 20.8, 24.2, 18.5
"2019/06/01", 20.3, 22.7, 17.1
"2019/06/02", 21.3, 24.4, 18.7
"2019/06/03", 21.2, 24.3, 19.1
"2019/06/04", 21.7, 25.7, 18.6
"2019/06/05", 21.7, 25.4, 19.2
"2019/06/06", 22.8, 28.2, 18.9
"2019/06/07", 19.7, 20.6, 18.8
"2019/06/08", 19.3, 20.3, 17.1
"2019/06/09", 17.2, 18.4, 15.4
"2019/06/10", 16.8, 18.5, 15.5
"2019/06/11", 18.0, 20.8, 15.3
"2019/06/12", 17.5, 19.5, 15.4
"2019/06/13", 20.2, 26.2, 14.8
"2019/06/14", 20.8, 24.5, 17.2
"2019/06/15", 18.1, 20.0, 16.3
"2019/06/16", 23.5, 28.0, 17.3
"2019/06/17", 22.3, 26.5, 18.6
"2019/06/18", 22.2, 25.5, 19.6
"2019/06/19", 23.2, 28.3, 19.5
"2019/06/20", 21.2, 23.9, 19.5
"2019/06/21", 22.3, 25.2, 20.4
"2019/06/22", 21.8, 24.2, 20.6
"2019/06/23", 20.6, 22.1, 19.5
"2019/06/24", 18.8, 20.0, 18.2
"2019/06/25", 20.8, 25.4, 17.2
"2019/06/26", 23.3, 28.8, 18.5
"2019/06/27", 24.5, 27.6, 21.0
"2019/06/28", 22.8, 26.3, 18.7
"2019/06/29", 19.6, 20.1, 18.8
"2019/06/30", 20.2, 22.9, 19.1
"2019/07/01", 20.9, 22.0, 19.5
"2019/07/02", 23.2, 27.7, 20.3
"2019/07/03", 23.2, 26.1, 21.5
"2019/07/04", 22.2, 25.3, 20.1
"2019/07/05", 20.8, 22.7, 18.8
"2019/07/06", 19.8, 21.4, 18.6
"2019/07/07", 18.3, 19.8, 16.6
"2019/07/08", 17.4, 19.5, 16.4
"2019/07/09", 16.9, 18.5, 15.7
"2019/07/10", 17.2, 19.8, 15.1
"2019/07/11", 18.5, 20.8, 16.2
"2019/07/12", 18.6, 20.3, 16.9
"2019/07/13", 22.3, 26.7, 17.9
"2019/07/14", 21.3, 22.8, 20.0
"2019/07/15", 20.8, 22.8, 19.7
"2019/07/16", 20.4, 21.4, 19.2
"2019/07/17", 22.3, 26.0, 20.7
"2019/07/18", 23.6, 26.7, 20.8
"2019/07/19", 26.7, 31.3, 23.8
"2019/07/20", 25.5, 28.7, 23.0
"2019/07/21", 22.5, 23.9, 20.9
"2019/07/22", 21.5, 22.3, 20.7
"2019/07/23", 23.6, 26.6, 21.8
"2019/07/24", 25.5, 28.8, 22.9
"2019/07/25", 26.5, 30.4, 23.4
"2019/07/26", 28.2, 32.6, 25.0
"2019/07/27", 28.1, 31.6, 25.8
"2019/07/28", 26.8, 29.9, 24.2
"2019/07/29", 28.2, 34.6, 24.7
"2019/07/30", 29.1, 33.8, 25.2
"2019/07/31", 29.2, 33.9, 25.0
"2019/08/01", 29.3, 34.0, 25.8
"2019/08/02", 29.3, 33.8, 26.2
"2019/08/03", 29.0, 34.6, 24.9
"2019/08/04", 28.3, 32.6, 25.0
"2019/08/05", 28.5, 32.1, 25.6
"2019/08/06", 30.0, 35.5, 26.0
"2019/08/07", 29.6, 35.1, 26.1
"2019/08/08", 29.5, 34.9, 25.7
"2019/08/09", 29.4, 34.4, 25.5
"2019/08/10", 28.7, 32.8, 25.6
"2019/08/11", 26.2, 27.9, 25.1
"2019/08/12", 27.4, 32.0, 24.5
"2019/08/13", 28.7, 32.3, 26.4
"2019/08/14", 28.5, 32.0, 26.8
"2019/08/15", 29.0, 31.8, 27.3
"2019/08/16", 28.6, 29.7, 27.5
"2019/08/17", 29.9, 34.5, 26.6
"2019/08/18", 27.9, 30.7, 25.7
"2019/08/19", 26.2, 28.2, 25.2
"2019/08/20", 25.5, 29.5, 22.0
"2019/08/21", 25.4, 28.3, 22.9
"2019/08/22", 25.2, 28.3, 23.2
"2019/08/23", 26.4, 29.0, 24.4
"2019/08/24", 26.5, 29.5, 24.2
"2019/08/25", 25.6, 29.8, 22.0
"2019/08/26", 24.5, 27.1, 21.9
"2019/08/27", 25.1, 27.7, 22.8
"2019/08/28", 25.7, 28.8, 23.1
"2019/08/29", 28.0, 33.2, 24.7
"2019/08/30", 25.8, 27.9, 24.5
"2019/08/31", 26.3, 29.2, 24.2
"2019/09/01", 26.9, 30.5, 24.7
"2019/09/02", 25.9, 28.6, 24.2
"2019/09/03", 24.4, 26.3, 22.8
"2019/09/04", 23.3, 24.5, 21.4
"2019/09/05", 25.1, 28.4, 23.0
"2019/09/06", 26.8, 32.0, 23.5
"2019/09/07", 27.2, 30.5, 23.9
"2019/09/08", 28.0, 31.7, 25.3
"2019/09/09", 28.8, 34.4, 24.7
"2019/09/10", 28.6, 32.7, 25.9
"2019/09/11", 27.0, 30.8, 24.2
"2019/09/12", 24.4, 25.9, 22.9
"2019/09/13", 22.2, 23.3, 20.0
"2019/09/14", 22.8, 25.5, 19.1
"2019/09/15", 24.3, 27.3, 21.4
"2019/09/16", 23.3, 25.1, 22.1
"2019/09/17", 24.5, 28.0, 22.5
"2019/09/18", 21.1, 23.6, 18.6
"2019/09/19", 21.3, 24.3, 18.8
"2019/09/20", 21.8, 24.9, 18.9
"2019/09/21", 21.6, 22.9, 20.3
"2019/09/22", 21.7, 24.8, 19.3
"2019/09/23", 26.3, 31.4, 20.8
"2019/09/24", 24.8, 27.5, 22.7
"2019/09/25", 23.2, 26.1, 21.5
"2019/09/26", 21.7, 24.2, 19.9
"2019/09/27", 21.6, 25.6, 18.1
"2019/09/28", 23.6, 29.3, 19.3
"2019/09/29", 24.6, 27.4, 22.6
"2019/09/30", 23.6, 26.5, 21.8
"2019/10/01", 22.6, 25.8, 19.8
"2019/10/02", 22.7, 28.0, 19.2
"2019/10/03", 23.3, 26.9, 19.1
"2019/10/04", 24.8, 29.1, 22.3
"2019/10/05", 24.5, 28.6, 21.2
"2019/10/06", 20.5, 22.7, 18.6
"2019/10/07", 19.7, 21.9, 17.7
"2019/10/08", 21.5, 26.3, 18.6
"2019/10/09", 20.1, 22.5, 17.1
"2019/10/10", 19.3, 22.7, 16.2
"2019/10/11"," * "," * "," * "
"2019/10/12", 23.3, 26.3, 19.9
"2019/10/13", 23.6, 27.8, 17.9
"2019/10/14", 18.1, 19.9, 16.5
"2019/10/15", 18.0, 19.8, 16.4
"2019/10/16", 16.2, 17.5, 14.8
"2019/10/17", 17.3, 19.7, 14.8
"2019/10/18", 17.6, 18.5, 16.4
"2019/10/19", 18.4, 20.8, 16.1
"2019/10/20", 19.4, 22.0, 17.7
"2019/10/21", 18.0, 19.2, 16.1
"2019/10/22", 15.6, 16.4, 14.1
"2019/10/23", 18.3, 22.4, 13.3
"2019/10/24", 18.2, 19.5, 17.1
"2019/10/25", 17.1, 19.9, 14.9
"2019/10/26", 18.9, 23.8, 14.7
"2019/10/27", 17.7, 19.8, 15.7
"2019/10/28", 16.3, 18.6, 14.5
"2019/10/29", 14.8, 15.6, 13.5
"2019/10/30", 15.5, 19.7, 11.2
"2019/10/31", 16.9, 20.3, 14.3
"2019/11/01", 16.3, 20.9,  9.9
"2019/11/02", 14.8, 17.2, 11.6
"2019/11/03", 15.5, 18.5, 12.2
"2019/11/04", 14.5, 17.5,  9.3
"2019/11/05", 12.5, 17.1,  6.7
"2019/11/06", 13.5, 19.1,  6.5
"2019/11/07", 15.8, 21.5,  8.9
"2019/11/08", 14.2, 16.5, 11.5
"2019/11/09", 12.7, 15.5, 10.0
"2019/11/10", 13.3, 16.5,  8.9
"2019/11/11", 13.8, 17.3, 10.6
"2019/11/12", 15.1, 20.4, 10.3
"2019/11/13", 13.8, 17.1, 11.4
"2019/11/14", 15.3, 20.9, 11.5
"2019/11/15", 12.1, 14.9,  8.0
"2019/11/16", 12.0, 17.6,  6.8
"2019/11/17", 13.0, 17.2,  7.3
"2019/11/18", 14.9, 20.5,  9.0
"2019/11/19", 15.9, 20.4, 11.7
"2019/11/20", 11.4, 14.3,  8.6
"2019/11/21",  9.6, 13.2,  4.8
"2019/11/22",  9.8, 12.6,  8.1
"2019/11/23", 13.4, 15.1, 10.1
"2019/11/24", 16.3, 17.9, 13.7
"2019/11/25", 15.5, 18.9, 10.6
"2019/11/26",  9.1, 10.6,  7.6
"2019/11/27",  9.5, 10.9,  8.2
"2019/11/28",  9.1, 11.4,  4.6
"2019/11/29",  5.1,  8.8,  2.0
"2019/11/30",  5.6,  9.7,  0.7
"2019/12/01",  7.2, 11.9,  4.0
"2019/12/02", 10.4, 16.8,  5.7
"2019/12/03", 11.7, 15.7,  7.3
"2019/12/04",  9.3, 15.1,  3.3
"2019/12/05",  8.7, 14.4,  3.7
"2019/12/06",  6.9,  9.0,  5.3
"2019/12/07",  5.1,  6.5,  3.8
"2019/12/08",  6.8, 11.2,  1.4
"2019/12/09",  7.1, 10.5,  3.9
"2019/12/10", 10.5, 14.2,  6.8
"2019/12/11", 12.2, 14.8,  8.6
"2019/12/12", 11.6, 18.6,  7.3
"2019/12/13",  6.8,  8.1,  6.0
"2019/12/14",  8.7, 13.9,  3.6
"2019/12/15",  7.5, 10.0,  4.5
"2019/12/16",  6.9, 11.1,  2.3
"2019/12/17",  8.0, 10.8,  6.0
"2019/12/18",  9.5, 14.5,  5.6
"2019/12/19",  8.3,  9.8,  7.0
"2019/12/20",  9.1, 13.3,  5.6
"2019/12/21",  6.9,  9.2,  5.1
"2019/12/22",  7.2, 10.4,  4.7
"2019/12/23",  7.0, 11.5,  4.3
"2019/12/24",  7.0, 11.1,  3.4
"2019/12/25",  5.1,  7.4,  1.7
"2019/12/26",  7.4, 11.8,  2.5
"2019/12/27",  8.2, 14.0,  2.0
"2019/12/28",  4.8,  8.8, -0.2
"2019/12/29",  5.0,  9.1, -1.1
"2019/12/30",  5.9,  7.1,  4.6
"2019/12/31",  7.7, 16.3,  2.3
